Flag for Thailand Weather past 2 weeks in Hat Yai, Thailand

Now
84 °F

Partly cloudy.


Feels Like: 91 °F
Forecast: 76 / 94 °F
Wind: 9 mph from Northwest

Location: Hat Yai Airport

Current Time: Jul 24, 2014 at 8:37:18 PM

Latest Report: Jul 24, 2014 at 7:30 PM


Visibility: N/A

Pressure: 29.77 "Hg

Humidity: 70%

Dew point: 73 °F

Location of Hat YaiLocation

Historic Weather in Hat Yai — Graph

°F

Hat Yai temperature yesterday

Maximum temperature yesterday: 93 °F (at 3:30 PM)
Minimum temperature yesterday: 77 °F (at 12:00 AM)
Average temperature yesterday: 85 °F

Past Weeks' High & Low Weather Summary

 TemperatureHumidityPressure
High95 °F (Jul 24, 2:00 PM)100% (Jul 10, 2:30 AM)29.86 "Hg (Jul 10, 2:30 AM)
Low72 °F (Jul 14, 6:00 AM)41% (Jul 24, 2:30 PM)29.68 "Hg (Jul 10, 4:00 PM)
Average83 °F78%29.78 "Hg
* Reported Jul 9 8:00 PM — Jul 24 7:30 PM, Hat Yai, Weather by CustomWeather, © 2014

Note: Actual official high and low records may vary slightly from our data, if they occured in-between our weather recording intervals... More about our weather records

Advertising

Hat Yai weather history for previous 24 hours

 ConditionsComfort  
Time TempWeatherWind HumidityBarometerVisibility
7:30 PM
Jul 24
84 °FPartly cloudy.9 mph70%29.77 "HgN/A
7:00 PM86 °FPartly cloudy.5 mph66%29.77 "HgN/A
6:30 PM86 °FMostly cloudy.6 mph66%29.77 "HgN/A
6:00 PM90 °FPartly sunny.10 mph55%29.74 "HgN/A
5:30 PM90 °FPartly sunny.8 mph59%29.74 "HgN/A
5:00 PM90 °FPartly sunny.10 mph55%29.74 "HgN/A
4:30 PM91 °FPartly sunny.12 mph52%29.71 "HgN/A
4:00 PM93 °FPartly sunny.13 mph49%29.71 "HgN/A
3:30 PM95 °FBroken clouds.14 mph44%29.71 "HgN/A
3:00 PM95 °FBroken clouds.18 mph44%29.71 "HgN/A
2:30 PM95 °FBroken clouds.14 mph41%29.71 "HgN/A
2:00 PM95 °FBroken clouds.12 mph47%29.74 "HgN/A
1:30 PM93 °FBroken clouds.13 mph47%29.74 "HgN/A
1:00 PM93 °FBroken clouds.15 mph49%29.74 "HgN/A
12:30 PM93 °FBroken clouds.9 mph53%29.77 "HgN/A
12:00 PM93 °FBroken clouds.12 mph53%29.80 "HgN/A
11:30 AM93 °FBroken clouds.12 mph53%29.80 "HgN/A
11:00 AM91 °FBroken clouds.9 mph52%29.80 "HgN/A
10:30 AM90 °FBroken clouds.13 mph59%29.83 "HgN/A
10:00 AM88 °FBroken clouds.6 mph66%29.83 "HgN/A
9:30 AM88 °FPartly sunny.5 mph70%29.83 "Hg5 mi
9:00 AM84 °FPartly sunny.3 mph79%29.83 "Hg4 mi
8:30 AM81 °FPartly sunny.5 mph89%29.80 "Hg4 mi
7:30 AM77 °FFog.5 mph94%29.80 "Hg2 mi
7:00 AM75 °FFog.2 mph100%29.77 "Hg3 mi
6:30 AM75 °FFog.2 mph100%29.77 "Hg3 mi
6:00 AM77 °FPassing clouds.No wind94%29.77 "Hg4 mi
5:30 AM77 °FPartly cloudy.No wind94%29.74 "Hg4 mi
5:00 AM77 °FPartly cloudy.No wind94%29.77 "Hg4 mi
4:30 AM77 °FPartly cloudy.No wind94%29.77 "Hg4 mi
4:00 AM77 °FPartly cloudy.2 mph94%29.77 "Hg5 mi
3:30 AM77 °FPartly cloudy.2 mph94%29.77 "Hg5 mi
3:00 AM77 °FPartly cloudy.2 mph94%29.77 "Hg6 mi
2:30 AM77 °FPartly cloudy.2 mph94%29.77 "Hg6 mi
2:00 AM77 °FPartly cloudy.2 mph94%29.80 "Hg6 mi
1:30 AM77 °FPartly cloudy.2 mph94%29.80 "Hg6 mi
1:00 AM77 °FPartly cloudy.No wind94%29.80 "HgN/A
12:30 AM77 °FPartly cloudy.No wind94%29.80 "HgN/A
12:00 AM77 °FPartly cloudy.No wind94%29.83 "HgN/A
11:30 PM
Jul 23
79 °FPartly cloudy.No wind89%29.83 "HgN/A
11:00 PM79 °FPartly cloudy.No wind89%29.83 "HgN/A
10:30 PM81 °FPartly cloudy.No wind84%29.83 "HgN/A
10:00 PM81 °FPartly cloudy.No wind84%29.83 "HgN/A
9:30 PM81 °FPartly cloudy.No wind84%29.80 "HgN/A
9:00 PM82 °FPartly cloudy.3 mph79%29.80 "HgN/A
8:30 PM82 °FPartly cloudy.3 mph79%29.80 "HgN/A
8:00 PM84 °FPartly cloudy.5 mph74%29.80 "HgN/A
Weather by CustomWeather, © 2014

See weather overviewHow to use our weather pages